[[{"header":{"parameterUnit":"m.s-1","parameterCategory":2,"la1":30.2992,"la2":30.254,"lo1":-89.0895,"lo2":-89.0443,"dy":0.0025,"dx":0.0025,"nx":19,"ny":19,"refTime":"2026-04-28T09:00:00:Z","depth":"0","parameterNumber":2,"parameterNumberName":"U-component_of_CURRENTS"},"data":[0,0,0,-0.0535,-0.0535,-0.0536,-0.0536,-0.0468,-0.0467,0,0,0,0,0,0,0,0,0,0,0,-0.0529,-0.0529,-0.0535,-0.0535,-0.0536,-0.0536,-0.0468,-0.0467,0,0,0,0,0,0,0,0,0,0,0,-0.0529,-0.0529,-0.0529,-0.0535,-0.0536,-0.0536,-0.0468,-0.0482,0,0,0,0,0,0,0,0,0,0,-0.0489,-0.0491,-0.0529,-0.0529,-0.0535,-0.0536,-0.0536,-0.0483,-0.0481,-0.0451,0,-0.0456,0,-0.0465,-0.0462,-0.0462,0,0,0,-0.0525,-0.0493,-0.0502,-0.0529,-0.0536,-0.0536,-0.0533,-0.0483,-0.048,-0.0448,-0.0456,-0.0454,-0.0464,-0.0461,-0.0461,-0.0402,-0.0402,0,0,-0.0525,-0.0517,-0.0504,-0.0501,-0.0541,-0.0533,-0.0533,-0.0482,-0.0474,-0.0455,-0.0453,-0.0463,-0.0461,-0.046,-0.0402,-0.0402,0,0,0,-0.0532,-0.0517,-0.0528,-0.0503,-0.0512,-0.0533,-0.0533,-0.0476,-0.0483,-0.0452,-0.0462,-0.0461,-0.046,-0.0403,-0.0402,-0.0449,0,0,0,-0.0531,-0.0522,-0.0528,-0.0522,-0.0513,-0.0502,-0.0528,-0.0486,-0.0481,-0.0463,-0.046,-0.0459,-0.0403,-0.0402,-0.0448,-0.0456,0,0,0,-0.0528,-0.0522,-0.0526,-0.0522,-0.0529,-0.0504,-0.0507,-0.0486,-0.0487,-0.0462,-0.0459,-0.0403,-0.0402,-0.0447,-0.0454,-0.0447,0,0,0,-0.0515,-0.0521,-0.0525,-0.0535,-0.0529,-0.0538,-0.0508,-0.0502,-0.0484,-0.046,-0.0403,-0.0402,-0.0447,-0.0453,-0.0447,-0.047,-0.0475,0,0,-0.0518,-0.0521,-0.0529,-0.0534,-0.0549,-0.0537,-0.0535,-0.0499,-0.0468,-0.0413,-0.0412,-0.0448,-0.0454,-0.0447,-0.0461,-0.0467,0,0,0,-0.0528,-0.0532,-0.0537,-0.0547,-0.0554,-0.0552,-0.0526,-0.0505,-0.0468,-0.0459,-0.0432,-0.0433,-0.0428,-0.044,-0.0444,-0.0405,-0.0402,-0.0402,-0.0402,-0.0513,-0.0529,-0.0537,-0.0554,-0.056,-0.0554,-0.0544,-0.0505,-0.0479,-0.0469,-0.046,-0.0469,-0.0484,-0.0487,-0.0447,-0.0453,-0.0453,-0.0453,-0.0453,-0.051,-0.0516,-0.0533,-0.0546,-0.0556,-0.0553,-0.054,-0.0528,-0.0495,-0.0477,-0.047,-0.0475,-0.0494,-0.0449,-0.0456,-0.0456,-0.0455,-0.0455,-0.0455,-0.0497,-0.0501,-0.051,-0.0524,-0.0538,-0.0548,-0.0546,-0.0542,-0.052,-0.0523,-0.0512,-0.0511,-0.048,-0.0518,-0.0518,-0.0518,-0.0518,-0.0518,-0.0518,-0.0474,-0.0485,-0.0484,-0.0502,-0.0511,-0.0526,-0.0545,-0.0543,-0.055,-0.0547,-0.0547,-0.0476,-0.0488,-0.0494,-0.0518,-0.0518,-0.0518,-0.0518,-0.0518,-0.0456,-0.0458,-0.0455,-0.046,-0.0474,-0.0454,-0.0507,-0.0533,-0.0543,-0.0547,-0.0523,-0.0553,-0.0532,-0.0529,-0.0535,-0.0568,-0.0568,-0.0568,-0.0568,-0.0438,-0.0441,-0.0427,-0.0425,-0.0426,-0.042,-0.039,-0.0447,-0.0509,-0.0529,-0.0521,-0.0518,-0.0518,-0.0495,-0.0492,-0.0497,-0.0519,-0.0518,-0.0518,-0.0418,-0.0417,-0.04,-0.0398,-0.04,-0.0359,-0.0287,-0.0297,-0.0444,-0.051,-0.0461,-0.0463,-0.0452,-0.0455,-0.0413,-0.0412,-0.0417,0,0]},{"header":{"parameterUnit":"m.s-1","parameterCategory":2,"la1":30.2992,"la2":30.254,"lo1":-89.0895,"lo2":-89.0443,"dy":0.0025,"dx":0.0025,"nx":19,"ny":19,"refTime":"2026-04-28T09:00:00:Z","depth":"0","parameterNumber":3,"parameterNumberName":"V-component_of_CURRENTS"},"data":[0,0,0,-0.0282,-0.0283,-0.0294,-0.0294,-0.0236,-0.0236,0,0,0,0,0,0,0,0,0,0,0,-0.027,-0.027,-0.0282,-0.0283,-0.0294,-0.0294,-0.0236,-0.0236,0,0,0,0,0,0,0,0,0,0,0,-0.0269,-0.027,-0.027,-0.0284,-0.0294,-0.0294,-0.0236,-0.0241,0,0,0,0,0,0,0,0,0,0,-0.0238,-0.0239,-0.027,-0.027,-0.0284,-0.0294,-0.0294,-0.0242,-0.0241,-0.0217,0,-0.0229,0,-0.0243,-0.0232,-0.0232,0,0,0,-0.0263,-0.024,-0.0253,-0.027,-0.0284,-0.0294,-0.0283,-0.0242,-0.024,-0.0216,-0.0228,-0.0227,-0.0242,-0.0232,-0.0231,-0.0199,-0.0199,0,0,-0.0263,-0.0257,-0.0254,-0.0253,-0.0298,-0.0283,-0.0284,-0.0242,-0.0237,-0.0228,-0.0226,-0.0241,-0.0231,-0.0231,-0.0199,-0.0199,0,0,0,-0.0275,-0.0257,-0.0271,-0.0254,-0.0268,-0.0284,-0.0285,-0.0239,-0.0247,-0.0226,-0.024,-0.0231,-0.023,-0.0199,-0.0199,-0.0213,0,0,0,-0.0273,-0.0265,-0.0271,-0.0266,-0.027,-0.0263,-0.0283,-0.0249,-0.0246,-0.024,-0.0231,-0.023,-0.0199,-0.0199,-0.0212,-0.0214,0,0,0,-0.0267,-0.0264,-0.0272,-0.0266,-0.0282,-0.0265,-0.027,-0.0249,-0.0255,-0.0232,-0.023,-0.0199,-0.0199,-0.0212,-0.0213,-0.0195,0,0,0,-0.0251,-0.0272,-0.0272,-0.0298,-0.0282,-0.0301,-0.027,-0.027,-0.0254,-0.0231,-0.0199,-0.0199,-0.0212,-0.0213,-0.0195,-0.0225,-0.0227,0,0,-0.0272,-0.0274,-0.0292,-0.0293,-0.0326,-0.0298,-0.0303,-0.0269,-0.0244,-0.0204,-0.0203,-0.0212,-0.0213,-0.0195,-0.0231,-0.0233,0,0,0,-0.0295,-0.0309,-0.0318,-0.0337,-0.0344,-0.0329,-0.0305,-0.0278,-0.0238,-0.024,-0.0211,-0.0211,-0.0199,-0.0217,-0.0218,-0.0036,-0.0199,-0.0199,-0.0199,-0.0297,-0.0318,-0.0348,-0.0369,-0.037,-0.0347,-0.0318,-0.0274,-0.0255,-0.0237,-0.0221,-0.0215,-0.0236,-0.0237,-0.0049,-0.0222,-0.0222,-0.0222,-0.0222,-0.0336,-0.0357,-0.037,-0.0409,-0.0391,-0.0383,-0.0321,-0.0292,-0.0233,-0.0227,-0.0214,-0.023,-0.024,-0.0038,-0.0223,-0.0223,-0.0223,-0.0223,-0.0223,-0.0345,-0.0357,-0.0389,-0.0429,-0.0425,-0.0399,-0.0359,-0.0302,-0.0246,-0.0227,-0.0231,-0.0231,-0.0053,-0.0219,-0.0219,-0.0219,-0.0219,-0.0219,-0.0219,-0.0335,-0.0368,-0.0408,-0.0445,-0.0459,-0.0444,-0.0374,-0.0334,-0.0276,-0.0243,-0.0243,-0.0028,-0.0214,-0.0213,-0.0218,-0.0218,-0.0218,-0.0218,-0.0218,-0.0347,-0.0361,-0.0422,-0.0454,-0.0492,-0.0488,-0.0434,-0.0368,-0.0313,-0.0295,-0.0032,-0.0244,-0.0236,-0.0235,-0.0234,-0.0245,-0.0245,-0.0245,-0.0245,-0.0338,-0.0355,-0.043,-0.0483,-0.0518,-0.0504,-0.0477,-0.0402,-0.0172,-0.0014,0.0064,0.008,0.0072,0.0101,0.0094,0.0104,0.018,0.0181,0.0181,-0.0339,-0.0365,-0.0415,-0.0484,-0.0533,-0.0521,-0.0496,-0.0341,0.0045,0.0222,0.0333,0.0315,0.0361,0.0334,0.0394,0.037,0.0388,0,0]}],[{"header":{"parameterUnit":"m.s-1","parameterCategory":2,"la1":30.2992,"la2":30.254,"lo1":-89.0895,"lo2":-89.0443,"dy":0.0025,"dx":0.0025,"nx":19,"ny":19,"refTime":"2026-04-28T09:00:00:Z","depth":"2","parameterNumber":2,"parameterNumberName":"U-component_of_CURRENTS"},"data":[0,0,0,-0.1227,-0.1229,-0.1242,-0.1242,-0.1247,-0.1248,0,0,0,0,0,0,0,0,0,0,0,-0.1184,-0.1184,-0.1227,-0.1229,-0.1242,-0.1242,-0.1247,-0.1248,0,0,0,0,0,0,0,0,0,0,0,-0.1184,-0.1184,-0.1184,-0.1229,-0.1243,-0.1242,-0.1247,-0.1231,0,0,0,0,0,0,0,0,0,0,-0.1215,-0.1205,-0.1184,-0.1184,-0.123,-0.1243,-0.1242,-0.123,-0.1232,-0.125,0,-0.125,0,-0.1284,-0.1252,-0.1252,0,0,0,-0.1191,-0.1203,-0.1207,-0.1184,-0.123,-0.1243,-0.1225,-0.1231,-0.1233,-0.1253,-0.125,-0.1252,-0.1284,-0.1252,-0.1252,-0.1225,-0.1224,0,0,-0.119,-0.1187,-0.1205,-0.1209,-0.1232,-0.1225,-0.1227,-0.1232,-0.1234,-0.125,-0.1253,-0.1284,-0.1252,-0.1253,-0.1226,-0.1225,0,0,0,-0.1214,-0.1186,-0.1189,-0.1207,-0.123,-0.1227,-0.1228,-0.1232,-0.1233,-0.1253,-0.1285,-0.1253,-0.1253,-0.1227,-0.1226,-0.1185,0,0,0,-0.1211,-0.1204,-0.1189,-0.1187,-0.123,-0.1241,-0.1228,-0.1231,-0.1235,-0.1285,-0.1253,-0.1254,-0.1227,-0.1226,-0.1188,-0.1158,0,0,0,-0.1184,-0.1202,-0.1201,-0.1187,-0.1215,-0.1241,-0.1241,-0.1231,-0.1256,-0.1252,-0.1254,-0.1228,-0.1226,-0.1191,-0.1163,-0.1116,0,0,0,-0.1181,-0.1174,-0.1201,-0.1213,-0.1215,-0.1249,-0.1241,-0.1256,-0.1252,-0.1253,-0.1227,-0.1226,-0.1191,-0.1165,-0.1119,-0.124,-0.1236,0,0,-0.1168,-0.1172,-0.1182,-0.1208,-0.1237,-0.1244,-0.1254,-0.1241,-0.1226,-0.1221,-0.122,-0.1187,-0.1163,-0.1116,-0.1143,-0.1143,0,0,0,-0.1177,-0.1173,-0.1192,-0.1216,-0.1254,-0.1242,-0.1262,-0.1244,-0.1183,-0.1226,-0.1164,-0.1149,-0.1122,-0.1201,-0.1199,-0.1218,-0.1218,-0.1218,-0.1218,-0.1112,-0.1148,-0.1161,-0.1197,-0.1215,-0.1242,-0.1206,-0.117,-0.1194,-0.1137,-0.1101,-0.1013,-0.1096,-0.1097,-0.1088,-0.1088,-0.1088,-0.1088,-0.1088,-0.1103,-0.1096,-0.1131,-0.1144,-0.1146,-0.1138,-0.1121,-0.1103,-0.1028,-0.105,-0.1025,-0.1134,-0.1094,-0.1084,-0.1085,-0.1085,-0.1086,-0.1086,-0.1086,-0.1044,-0.1042,-0.106,-0.1068,-0.1031,-0.1038,-0.0996,-0.0979,-0.0951,-0.0918,-0.1,-0.1003,-0.0992,-0.0904,-0.0903,-0.0903,-0.0903,-0.0902,-0.0902,-0.0973,-0.0998,-0.097,-0.098,-0.0941,-0.0917,-0.0908,-0.0906,-0.0929,-0.0948,-0.0949,-0.0951,-0.0957,-0.098,-0.0897,-0.0898,-0.0898,-0.0899,-0.0899,-0.0891,-0.0894,-0.0867,-0.0837,-0.0819,-0.0831,-0.0869,-0.095,-0.0933,-0.0974,-0.0971,-0.0971,-0.0992,-0.0996,-0.102,-0.095,-0.095,-0.095,-0.0951,-0.0802,-0.0818,-0.077,-0.074,-0.0734,-0.0789,-0.0877,-0.0965,-0.0997,-0.0946,-0.0945,-0.1018,-0.1019,-0.1044,-0.1047,-0.1072,-0.1016,-0.1016,-0.1015,-0.0741,-0.0745,-0.0677,-0.0683,-0.0693,-0.0764,-0.0875,-0.097,-0.0925,-0.1007,-0.0846,-0.0976,-0.1091,-0.1088,-0.1135,-0.1135,-0.118,0,0]},{"header":{"parameterUnit":"m.s-1","parameterCategory":2,"la1":30.2992,"la2":30.254,"lo1":-89.0895,"lo2":-89.0443,"dy":0.0025,"dx":0.0025,"nx":19,"ny":19,"refTime":"2026-04-28T09:00:00:Z","depth":"2","parameterNumber":3,"parameterNumberName":"V-component_of_CURRENTS"},"data":[0,0,0,-0.0449,-0.0449,-0.044,-0.0439,-0.0345,-0.0344,0,0,0,0,0,0,0,0,0,0,0,-0.0465,-0.0466,-0.0449,-0.0449,-0.044,-0.0439,-0.0345,-0.0344,0,0,0,0,0,0,0,0,0,0,0,-0.0465,-0.0466,-0.0466,-0.0449,-0.044,-0.0439,-0.0345,-0.0372,0,0,0,0,0,0,0,0,0,0,-0.039,-0.0409,-0.0465,-0.0466,-0.0449,-0.044,-0.0439,-0.0374,-0.037,-0.0327,0,-0.0342,0,-0.0335,-0.0336,-0.0336,0,0,0,-0.0444,-0.0413,-0.0419,-0.0466,-0.0449,-0.044,-0.0442,-0.0372,-0.0368,-0.0321,-0.0341,-0.0338,-0.0333,-0.0335,-0.0335,-0.0284,-0.0284,0,0,-0.0444,-0.0447,-0.0422,-0.0417,-0.0466,-0.0443,-0.0442,-0.037,-0.0366,-0.0341,-0.0336,-0.0332,-0.0335,-0.0334,-0.0284,-0.0284,0,0,0,-0.0449,-0.0448,-0.0457,-0.0421,-0.0422,-0.0442,-0.0442,-0.037,-0.0377,-0.0335,-0.033,-0.0334,-0.0332,-0.0283,-0.0284,-0.0322,0,0,0,-0.0449,-0.0451,-0.0458,-0.0457,-0.0425,-0.0404,-0.0443,-0.0382,-0.0374,-0.0331,-0.0334,-0.0331,-0.0283,-0.0284,-0.032,-0.0314,0,0,0,-0.0462,-0.0451,-0.046,-0.0458,-0.0456,-0.0405,-0.0408,-0.0381,-0.037,-0.0336,-0.0331,-0.0283,-0.0283,-0.0318,-0.0312,-0.0281,0,0,0,-0.0452,-0.0476,-0.046,-0.0478,-0.0456,-0.0437,-0.0408,-0.0389,-0.0365,-0.0333,-0.0283,-0.0284,-0.0318,-0.0311,-0.0281,-0.0242,-0.0241,0,0,-0.0478,-0.0479,-0.0489,-0.0475,-0.0475,-0.0437,-0.0422,-0.0387,-0.036,-0.0298,-0.0298,-0.032,-0.0312,-0.0281,-0.0286,-0.0283,0,0,0,-0.0493,-0.0505,-0.0499,-0.0499,-0.0473,-0.045,-0.0408,-0.0387,-0.0364,-0.035,-0.0325,-0.0318,-0.0297,-0.0274,-0.0272,-0.0287,-0.0287,-0.0287,-0.0287,-0.0506,-0.051,-0.0524,-0.0522,-0.05,-0.0455,-0.0432,-0.0398,-0.0368,-0.0377,-0.0354,-0.036,-0.0339,-0.0336,-0.037,-0.037,-0.037,-0.037,-0.0371,-0.0545,-0.0559,-0.0552,-0.0576,-0.0542,-0.0519,-0.045,-0.0436,-0.038,-0.0382,-0.036,-0.0321,-0.0336,-0.0374,-0.0373,-0.0373,-0.0372,-0.0372,-0.0372,-0.0557,-0.057,-0.0593,-0.0617,-0.0606,-0.0561,-0.0518,-0.0466,-0.0409,-0.0391,-0.0333,-0.0332,-0.0351,-0.038,-0.038,-0.0379,-0.0379,-0.0379,-0.0379,-0.0564,-0.0587,-0.0624,-0.065,-0.0655,-0.0632,-0.0547,-0.0492,-0.0398,-0.035,-0.0349,-0.0362,-0.0362,-0.035,-0.0377,-0.0377,-0.0378,-0.0378,-0.0378,-0.0582,-0.0598,-0.0645,-0.0671,-0.069,-0.0674,-0.0595,-0.0465,-0.0391,-0.0337,-0.0311,-0.0313,-0.0282,-0.0283,-0.0269,-0.0273,-0.0273,-0.0273,-0.0273,-0.0581,-0.0598,-0.0651,-0.0687,-0.0709,-0.0688,-0.0575,-0.0329,-0.0184,-0.0063,-0.0071,-0.007,-0.008,-0.0036,-0.0043,-0.0023,0.0037,0.0038,0.0039,-0.0581,-0.0602,-0.0631,-0.0686,-0.0722,-0.0698,-0.0557,-0.0195,0.0094,0.0057,0.0045,-0.0264,-0.0287,-0.0292,-0.0246,-0.0249,-0.0226,0,0]}],[{"header":{"parameterUnit":"m.s-1","parameterCategory":2,"la1":30.2992,"la2":30.254,"lo1":-89.0895,"lo2":-89.0443,"dy":0.0025,"dx":0.0025,"nx":19,"ny":19,"refTime":"2026-04-28T09:00:00:Z","depth":"4","parameterNumber":2,"parameterNumberName":"U-component_of_CURRENTS"},"data":[0,0,0,-0.078,-0.0782,-0.0875,-0.0875,-0.0972,-0.0973,0,0,0,0,0,0,0,0,0,0,0,-0.0745,-0.0745,-0.0779,-0.0782,-0.0875,-0.0875,-0.0972,-0.0973,0,0,0,0,0,0,0,0,0,0,0,-0.0745,-0.0745,-0.0746,-0.0782,-0.0874,-0.0875,-0.0972,-0.0908,0,0,0,0,0,0,0,0,0,0,-0.082,-0.0799,-0.0745,-0.0746,-0.0783,-0.0874,-0.0875,-0.0905,-0.0912,-0.0923,0,-0.0938,0,-0.0958,-0.0979,-0.0979,0,0,0,-0.0784,-0.0793,-0.081,-0.0746,-0.0783,-0.0874,-0.0833,-0.0909,-0.0916,-0.0932,-0.0939,-0.0943,-0.096,-0.0979,-0.098,-0.1058,-0.1058,0,0,-0.0778,-0.077,-0.0805,-0.0815,-0.0808,-0.083,-0.0836,-0.0914,-0.0926,-0.094,-0.0946,-0.0961,-0.098,-0.0981,-0.1058,-0.1058,0,0,0,-0.0762,-0.0767,-0.0783,-0.0811,-0.083,-0.0833,-0.084,-0.0922,-0.0926,-0.0947,-0.0962,-0.098,-0.0982,-0.1058,-0.1058,-0.1124,0,0,0,-0.0759,-0.0757,-0.078,-0.0778,-0.0828,-0.0883,-0.0846,-0.092,-0.093,-0.0962,-0.098,-0.0982,-0.1057,-0.1058,-0.1122,-0.1128,0,0,0,-0.0741,-0.0756,-0.0764,-0.0777,-0.0816,-0.0882,-0.0891,-0.0923,-0.0939,-0.0979,-0.0983,-0.1057,-0.1058,-0.112,-0.1125,-0.114,0,0,0,-0.0731,-0.0745,-0.0764,-0.0793,-0.0815,-0.0873,-0.089,-0.0931,-0.0963,-0.0981,-0.1057,-0.1058,-0.1119,-0.1123,-0.1138,-0.0977,0,0,0,-0.0738,-0.0746,-0.0762,-0.0782,-0.083,-0.086,-0.0931,-0.097,-0.0975,-0.103,-0.1033,-0.1123,-0.1125,-0.1139,-0.1007,0,0,0,0,-0.0758,-0.0767,-0.0787,-0.0823,-0.0868,-0.0926,-0.0973,-0.1002,-0.106,-0.0997,-0.1114,-0.1112,-0.112,-0.102,-0.106,-0.106,-0.106,-0.106,-0.106,-0.0741,-0.0771,-0.0801,-0.0848,-0.0898,-0.0975,-0.1021,-0.1067,-0.1091,-0.112,-0.1161,-0.1207,-0.1105,-0.1166,-0.1166,-0.1167,-0.1167,-0.1167,-0.1167,-0.0727,-0.0739,-0.0801,-0.0849,-0.0927,-0.1009,-0.1097,-0.1129,-0.1211,-0.1211,-0.1216,-0.1091,-0.1174,-0.1172,-0.1171,-0.1171,-0.117,-0.117,-0.1169,-0.0694,-0.0704,-0.0752,-0.0818,-0.0924,-0.1034,-0.1086,-0.1177,-0.1246,-0.1272,-0.1164,-0.1237,-0.1236,-0.1295,-0.1295,-0.1295,-0.1295,-0.1295,-0.1295,-0.0637,-0.0676,-0.071,-0.0793,-0.0854,-0.0956,-0.1096,-0.1126,-0.1223,-0.1198,-0.1299,-0.1249,-0.1244,-0.1242,-0.1297,-0.1297,-0.1297,-0.1297,-0.1296,-0.0571,-0.061,-0.0635,-0.068,-0.079,-0.0845,-0.098,-0.1039,-0.1077,-0.1068,-0.1144,-0.1151,-0.1103,-0.1102,-0.1093,-0.1106,-0.1104,-0.1102,0,-0.0519,-0.0542,-0.0577,-0.0611,-0.0664,-0.0774,-0.0803,-0.0871,-0.0965,-0.0967,-0.1068,-0.1154,-0.1158,-0.1102,-0.1098,-0.1084,0,0,0,-0.0456,-0.0493,-0.0493,-0.0561,-0.0614,-0.0712,-0.0818,-0.082,-0.0971,-0.0916,-0.1055,-0.1067,-0.1118,-0.1302,-0.1245,-0.124,-0.1232,0,0]},{"header":{"parameterUnit":"m.s-1","parameterCategory":2,"la1":30.2992,"la2":30.254,"lo1":-89.0895,"lo2":-89.0443,"dy":0.0025,"dx":0.0025,"nx":19,"ny":19,"refTime":"2026-04-28T09:00:00:Z","depth":"4","parameterNumber":3,"parameterNumberName":"V-component_of_CURRENTS"},"data":[0,0,0,0.0021,0.0021,0.0034,0.0034,0.0104,0.0104,0,0,0,0,0,0,0,0,0,0,0,0.0017,0.0017,0.0021,0.0021,0.0034,0.0034,0.0103,0.0104,0,0,0,0,0,0,0,0,0,0,0,0.0017,0.0017,0.0017,0.0021,0.0034,0.0034,0.0103,0.0082,0,0,0,0,0,0,0,0,0,0,0.0064,0.0049,0.0017,0.0017,0.0021,0.0034,0.0034,0.008,0.0083,0.0111,0,0.0107,0,0.0106,0.011,0.011,0,0,0,0.0027,0.0046,0.005,0.0017,0.0021,0.0034,0.003,0.0082,0.0085,0.0115,0.0108,0.011,0.0107,0.011,0.011,0.0184,0.0185,0,0,0.0027,0.0023,0.0047,0.0051,0.0019,0.003,0.003,0.0083,0.0086,0.0108,0.0112,0.0108,0.0111,0.0111,0.0184,0.0184,0,0,0,0.0021,0.0023,0.0023,0.0049,0.0046,0.003,0.0031,0.0083,0.0083,0.0113,0.0109,0.0111,0.0112,0.0184,0.0184,0.0145,0,0,0,0.002,0.0019,0.0023,0.0022,0.0045,0.0058,0.003,0.008,0.0085,0.0109,0.0111,0.0113,0.0184,0.0184,0.0146,0.0109,0,0,0,0.0017,0.0018,0.0017,0.0021,0.0024,0.0056,0.0059,0.0081,0.0084,0.011,0.0113,0.0183,0.0184,0.0146,0.0111,0.0166,0,0,0,0.0017,-0.0004,0.0017,-0.0009,0.0023,0.0014,0.0059,0.0056,0.0071,0.0111,0.0184,0.0184,0.0146,0.0112,0.0166,0.0142,0,0,0,-0.0015,-0.0008,-0.0026,-0.0007,-0.0036,0.0013,0.0011,0.0048,0.0096,0.0171,0.0172,0.0145,0.0111,0.0166,0.0174,0,0,0,0,-0.004,-0.0054,-0.0058,-0.0069,-0.006,-0.004,0.0003,0.0046,0.0112,0.0108,0.0167,0.0147,0.0183,0.017,0.0187,0.0187,0.0187,0.0187,0.0186,-0.0081,-0.0088,-0.0122,-0.0124,-0.012,-0.0072,-0.0042,0.0033,0.0088,0.0121,0.0132,0.0164,0.0149,0.0162,0.0162,0.0162,0.0162,0.0162,0.0162,-0.0143,-0.0165,-0.017,-0.0204,-0.0174,-0.0157,-0.0067,-0.0015,0.0094,0.0121,0.016,0.0148,0.0158,0.0159,0.0159,0.016,0.016,0.016,0.016,-0.0165,-0.0179,-0.0202,-0.0246,-0.0245,-0.0197,-0.0154,-0.007,0.005,0.008,0.0145,0.0159,0.0146,0.0141,0.0141,0.0141,0.0141,0.0141,0.0141,-0.0175,-0.0202,-0.0238,-0.0281,-0.0293,-0.0279,-0.0185,-0.0111,0.0014,0.0095,0.01,0.0159,0.0159,0.0148,0.0143,0.0142,0.0142,0.0142,0.0142,-0.0204,-0.0205,-0.026,-0.0287,-0.032,-0.031,-0.0246,-0.0093,0.0016,0.0107,0.0127,0.0128,0.015,0.0151,0.014,0.0132,0.0132,0.0132,0,-0.0209,-0.022,-0.0269,-0.0303,-0.032,-0.0316,-0.0197,-0.0103,0.0032,0.0036,0.0035,0.0052,0.0055,0.0072,0.0073,0.0055,0,0,0,-0.0229,-0.0235,-0.0259,-0.0291,-0.0314,-0.022,-0.016,-0.0102,-0.0005,0.0075,0.0124,0.0126,0.0083,0.0146,0.0183,0.0184,0.0168,0,0]}]]